Snowfall_Accumulation
0.0 0.0 0.0 0.0 0.0 0.0 0.0 0.0 0.0 0.0 0.0 0.0 0.0 0.0 0.0 0.0 0.0 0.0 0.0 0.0 2.6 15.3 0.6 0.0 0.0 1.7 1.7 2.8 7.3 4.2 7.7 3.6 6.3 11.1 8.3 7.4 6.8 5.2 2.8 0.1 2.5 6.8 4.5 3.5 4.4 12.5 5.3 0.1 0.0 2.0 4.2 0.9 4.0 6.6
0.0 0.0 0.0 0.0 0.0 0.0 0.0 0.0 0.0 0.0 0.0 0.0 0.0 0.0 0.0 0.0 0.0 0.0 0.3 0.0 0.0 5.4 4.3 0.3 0.1 0.0 0.3 1.2 4.2 3.8 6.9 4.6 5.3 10.2 11.7 10.7 10.4 8.0 1.5 4.0 0.2 11.5 6.5 5.0 1.5 0.5 0.4 0.2 0.1 0.1 0.0 1.6 2.3 8.0
0.0 0.0 0.0 0.0 0.0 0.0 0.0 0.0 0.0 0.0 0.0 0.0 0.0 0.0 0.0 0.0 0.0 0.0 0.0 0.0 0.7 10.5 5.5 2.8 2.2 0.3 0.0 0.0 1.0 8.7 3.1 6.2 7.2 8.8 18.0 10.2 15.5 6.6 6.6 3.5 2.5 1.4 0.7 1.8 0.7 0.7 1.1 0.4 0.0 0.0 0.2 1.2 1.9 4.0
0.0 0.0 0.0 0.0 0.0 0.0 0.0 0.0 0.0 0.0 0.0 0.0 0.0 0.0 0.0 0.0 0.0 0.0 0.0 0.0 1.5 10.1 14.9 3.5 0.0 0.9 0.1 0.0 0.8 1.0 2.9 3.8 9.6 11.7 29.2 27.1 17.4 6.1 6.2 5.4 5.0 2.2 0.3 0.4 0.5 1.7 1.0 0.2 0.2 0.3 0.6 1.1 0.8 0.2
0.0 0.0 0.0 0.0 0.0 0.0 0.0 0.0 0.0 0.0 0.0 0.0 0.0 0.0 0.0 0.0 0.0 0.0 0.0 0.0 0.0 8.8 11.2 3.2 1.1 1.1 0.4 0.1 1.7 3.9 8.0 12.5 23.5 35.2 38.2 29.6 10.8 12.1 5.6 9.7 8.0 2.5 3.2 3.7 2.2 0.7 1.5 0.2 0.1 0.1 1.3 1.1 1.2 2.4
0.0 0.0 0.0 0.0 0.0 0.0 0.0 0.0 0.0 0.0 0.0 0.0 0.0 0.0 0.0 0.0 0.0 0.7 3.8 1.8 1.3 3.2 12.9 13.8 2.1 2.2 1.7 1.9 5.3 8.2 9.0 14.2 17.4 19.9 24.4 17.9 10.7 16.8 20.4 12.4 4.6 2.3 1.0 1.8 2.6 0.0 0.2 0.2 0.1 0.3 1.6 0.9 2.0 2.5
0.0 0.0 0.0 0.0 0.0 0.0 0.0 0.0 0.0 0.0 0.0 0.0 0.0 0.0 0.0 0.0 0.0 3.2 3.7 1.7 1.0 2.1 11.0 24.2 7.5 3.5 3.3 3.5 4.8 7.7 7.5 9.9 12.8 15.0 17.2 13.2 11.7 12.4 16.3 10.2 6.5 3.7 2.0 0.8 0.1 1.6 1.1 0.3 1.6 0.5 1.3 1.2 1.6 2.3
0.0 0.0 0.0 0.0 0.0 0.0 0.0 0.0 0.0 0.0 0.0 0.0 0.0 0.0 0.0 0.0 0.0 2.9 1.0 0.0 1.5 5.3 8.6 29.5 12.6 5.1 2.4 4.8 7.7 3.5 9.6 8.0 10.8 11.5 11.7 10.8 9.4 10.5 22.2 12.3 10.1 7.1 4.1 2.7 1.9 1.5 2.6 1.9 1.2 1.3 1.3 1.3 1.5 3.4
0.0 0.0 0.0 0.0 0.0 0.0 0.0 0.0 0.0 0.0 0.0 0.0 0.0 0.0 0.0 8.2 11.1 8.3 0.0 0.0 1.4 6.9 31.9 19.0 9.6 9.3 2.6 4.1 6.7 9.0 8.5 15.7 8.9 15.8 11.1 5.7 9.5 23.1 20.2 15.2 11.8 10.4 7.8 8.2 3.5 3.3 3.4 3.2 3.7 3.4 3.0 2.9 3.2 5.7
0.0 0.0 0.0 0.0 0.0 0.0 0.0 0.0 0.0 0.0 0.0 0.0 0.0 14.2 47.1 18.0 0.0 0.1 11.0 20.0 28.9 24.4 22.2 19.5 1.5 6.3 3.0 4.0 8.5 10.5 9.3 11.4 18.3 10.6 4.7 13.2 22.5 21.3 20.1 17.7 16.2 14.8 13.9 9.8 6.6 8.8 5.6 5.8 6.4 6.8 7.7 7.6 7.8 9.1
0.0 0.0 0.0 0.0 0.0 0.0 0.0 0.0 0.0 0.0 0.0 0.5 28.1 43.3 22.4 0.5 11.8 20.3 49.1 47.8 28.1 28.5 8.9 5.7 4.0 6.8 3.4 10.4 10.0 10.0 17.9 11.8 22.6 7.1 4.7 12.4 20.7 27.7 20.3 17.6 17.3 16.4 15.2 15.3 12.5 12.3 9.1 9.6 10.1 7.6 7.4 7.6 7.8 7.2
0.0 0.0 0.0 0.0 0.0 0.0 0.0 0.0 0.0 0.3 12.4 3.7 11.8 12.4 19.6 33.7 44.4 55.2 49.5 23.8 15.7 4.5 2.7 5.1 6.0 5.4 4.7 5.1 16.2 18.2 25.5 24.1 20.5 4.6 10.3 17.7 26.3 23.6 17.8 19.3 18.8 17.1 14.6 16.5 12.3 11.9 10.9 9.9 8.3 7.8 8.0 8.3 8.1 8.4
0.0 0.0 0.0 0.0 0.0 0.0 0.0 0.0 0.0 0.0 0.1 15.9 47.5 80.5 71.4 66.7 66.7 46.3 25.2 9.8 4.1 3.0 3.6 6.2 6.1 2.7 3.1 8.3 21.3 25.1 26.5 17.3 5.7 11.6 9.6 17.9 19.9 16.9 16.8 14.6 15.5 15.4 13.9 13.7 12.6 12.4 10.2 9.5 7.0 6.2 7.2 9.5 7.3 6.0
0.0 0.0 0.0 0.0 0.0 0.0 0.0 0.0 0.0 0.0 6.1 68.6 104.1 115.0 65.4 54.2 22.5 12.2 7.6 5.7 4.9 5.2 3.9 2.6 2.5 4.2 4.0 16.4 19.3 26.7 13.5 12.3 13.6 8.2 9.9 13.6 11.6 10.0 9.0 10.5 8.8 9.9 8.0 7.0 8.1 7.3 5.4 3.3 3.5 3.1 2.9 2.4 1.7 1.5
0.0 0.0 0.0 0.0 0.0 0.0 0.0 0.0 0.0 0.3 27.6 105.2 79.8 68.3 41.0 14.4 9.7 6.9 4.7 4.0 2.0 1.5 2.2 1.1 2.5 8.1 12.0 25.8 19.1 13.1 19.7 6.4 2.7 5.4 7.2 7.7 5.7 4.0 3.4 3.6 5.3 4.2 2.9 1.6 1.3 1.0 1.1 1.5 1.4 1.5 1.7 1.4 1.0 0.9
0.0 0.0 0.0 0.0 0.0 0.0 0.3 0.0 7.0 26.1 100.1 102.5 73.7 40.3 12.4 3.6 3.8 2.0 1.5 1.8 0.7 0.5 1.7 7.9 21.5 31.2 22.2 16.8 20.0 7.9 8.9 6.6 5.8 4.5 4.5 2.7 0.5 0.6 0.5 1.5 2.2 1.0 1.0 1.5 1.0 0.5 0.9 0.9 0.7 1.0 1.2 1.3 1.3 1.3
0.0 1.7 0.0 0.0 0.0 0.0 0.0 3.1 52.2 115.0 122.0 105.2 48.6 14.2 7.5 5.7 5.8 2.9 1.3 1.2 0.6 4.1 9.7 21.5 35.7 19.8 11.8 17.6 8.5 2.8 5.4 5.0 2.6 3.0 1.0 0.1 0.2 0.5 0.8 1.0 1.8 1.0 1.5 1.9 2.1 1.2 0.7 0.5 0.4 0.5 0.9 1.2 1.5 1.5
0.7 0.0 0.0 0.0 0.5 8.1 22.4 51.3 97.7 122.3 109.2 40.4 15.3 7.2 4.6 4.2 4.2 3.3 2.6 2.5 4.3 9.3 13.0 21.8 18.6 27.4 21.4 12.7 7.9 8.2 6.6 4.1 1.0 0.6 0.5 1.7 1.5 0.7 0.6 1.8 2.4 2.5 2.2 1.5 0.8 1.0 0.9 0.6 0.6 1.0 1.0 1.7 1.7 1.5
0.1 0.1 0.0 0.0 0.2 30.1 112.9 122.4 79.1 86.7 35.5 10.3 6.6 5.5 4.8 3.7 1.7 2.6 3.4 4.4 5.3 6.7 16.4 32.8 39.8 26.2 8.5 10.1 10.6 6.7 3.6 1.8 1.7 1.4 2.3 3.0 2.0 2.0 2.3 2.2 1.7 2.3 2.4 2.3 1.7 1.3 0.8 0.6 0.9 1.8 2.0 2.2 3.2 2.3
0.0 0.0 0.5 1.3 0.5 94.2 125.1 99.0 49.3 36.6 19.8 11.5 7.7 9.0 9.1 6.8 4.3 5.8 7.6 7.9 8.6 16.4 33.2 35.5 12.0 8.4 9.2 10.8 9.6 8.1 6.6 4.7 4.7 3.9 3.3 2.3 3.3 3.5 3.2 2.0 1.3 2.1 1.9 1.5 1.1 0.9 1.1 1.5 0.7 0.2 1.6 3.1 4.5 3.9
4.8 9.2 8.4 4.2 48.3 80.2 82.6 52.5 38.7 25.9 16.6 12.9 14.5 12.3 15.1 10.8 9.3 8.4 10.1 7.9 20.8 29.0 22.6 14.0 11.4 10.3 10.5 9.9 6.9 6.2 6.1 5.1 5.1 5.1 5.0 4.3 3.0 2.0 1.6 1.7 1.4 1.1 1.1 1.0 0.8 1.2 0.8 1.4 1.3 1.0 1.7 2.4 1.8 3.3
12.5 4.8 26.1 29.3 95.2 94.1 75.1 39.8 26.1 18.7 13.6 17.0 17.7 15.7 18.4 18.2 17.6 16.9 14.4 25.4 29.1 14.4 12.1 11.7 9.3 8.2 7.0 5.9 5.5 5.6 4.6 4.3 4.0 2.9 3.4 3.3 2.4 0.8 0.5 1.7 1.2 1.8 1.9 1.4 1.9 2.4 1.2 0.8 2.1 3.2 2.5 2.3 2.7 3.0
3.6 12.4 54.6 74.8 95.6 70.2 56.4 28.7 28.8 26.6 31.5 31.9 24.1 23.6 25.7 20.4 22.1 18.5 31.1 20.1 14.9 12.7 10.7 9.2 7.9 8.1 6.9 6.1 4.0 2.6 3.0 2.9 2.6 1.6 1.6 0.7 1.0 0.9 0.8 2.3 2.0 4.4 3.4 1.1 0.6 3.4 3.1 1.7 1.7 4.4 3.1 2.6 3.0 3.6
8.5 73.5 95.4 85.0 61.3 49.6 29.0 25.0 20.5 16.1 23.3 24.1 24.4 24.4 17.7 17.0 20.6 26.8 22.3 10.8 11.5 10.6 9.3 9.7 8.0 6.1 6.0 4.8 4.7 3.0 2.4 1.5 2.1 1.7 1.8 1.6 2.0 1.2 0.8 2.6 2.5 1.6 2.1 2.5 3.5 3.7 3.3 4.0 3.7 4.5 4.3 5.3 4.9 7.1
108.3 110.0 70.2 61.4 31.5 19.7 12.7 13.8 14.3 14.3 12.0 12.9 16.0 18.6 16.0 16.8 24.5 21.4 11.9 10.8 12.1 12.6 10.4 8.1 6.3 5.9 4.5 3.8 2.7 3.2 3.5 4.3 5.1 3.5 1.7 2.7 4.9 5.4 2.3 2.1 1.4 1.3 3.8 7.6 5.8 4.7 3.9 5.8 6.6 5.5 4.8 6.9 8.1 8.4
85.0 43.7 37.6 14.2 8.2 5.7 6.8 7.7 9.3 9.2 9.6 13.3 17.2 15.1 16.4 20.4 20.4 15.4 8.6 9.4 10.4 11.5 10.8 8.9 5.5 4.1 4.9 4.3 6.1 4.9 3.8 4.2 6.2 8.0 4.5 4.7 5.9 8.9 6.5 3.8 2.9 3.0 2.5 10.9 16.4 13.9 8.9 6.7 8.8 7.3 7.7 5.5 7.3 11.6
44.9 22.8 13.1 5.6 6.1 7.7 8.5 8.7 7.3 9.1 14.4 14.1 9.8 7.2 13.3 21.9 10.1 6.1 5.4 7.5 9.4 9.8 9.5 8.9 8.0 6.8 5.9 5.9 6.2 6.6 7.2 7.8 8.0 4.7 6.0 6.7 6.6 5.6 9.1 16.1 13.1 3.4 7.8 13.5 14.8 16.2 17.0 12.0 10.7 10.5 10.6 8.4 7.9 8.9
11.2 3.9 3.1 3.3 4.2 7.1 10.1 9.5 9.2 8.9 9.4 7.3 8.0 7.9 9.9 7.2 4.7 5.1 6.5 6.0 7.9 9.1 10.1 10.6 9.7 8.0 8.5 8.1 8.9 11.7 12.7 10.6 10.3 9.0 8.1 7.4 6.6 9.6 10.3 11.6 12.1 12.6 15.6 15.1 20.5 19.9 17.6 16.3 15.9 13.4 12.5 11.3 6.9 7.0
4.9 2.9 2.6 5.7 8.4 10.6 11.1 8.9 7.5 5.2 4.9 5.2 7.9 7.3 6.1 4.2 4.0 4.1 5.2 6.9 8.5 9.2 10.3 10.9 11.5 11.6 13.3 12.9 13.0 13.3 14.4 14.2 14.6 10.9 5.3 5.4 5.8 8.1 12.9 14.2 14.0 15.7 14.7 14.4 10.6 15.0 18.1 20.2 19.6 18.8 14.1 11.9 9.0 10.3
4.7 4.2 6.3 7.1 6.4 5.0 5.1 4.5 5.2 4.7 6.9 8.7 7.8 7.8 5.3 5.2 5.7 5.4 4.6 4.8 7.1 9.8 12.7 13.7 14.5 17.0 15.5 13.8 14.7 15.4 18.0 18.7 17.7 17.7 15.1 7.9 7.1 8.4 12.9 17.0 16.9 14.4 15.2 16.6 15.9 14.5 11.6 12.8 11.4 13.2 13.0 11.8 11.6 12.0
4.8 6.2 5.6 5.1 4.1 3.1 5.4 7.8 9.6 9.7 9.5 9.0 8.0 7.9 6.7 5.2 5.0 4.0 3.4 4.4 5.6 8.9 12.6 14.2 15.7 17.9 17.8 15.0 15.7 15.7 15.5 15.2 16.0 16.2 17.6 19.8 16.5 17.7 19.1 19.7 18.7 18.8 18.0 17.7 15.4 15.1 14.2 11.5 9.7 10.6 10.2 10.3 10.7 9.9
6.0 7.0 6.6 5.9 4.8 6.9 9.0 9.1 8.5 7.3 6.9 6.2 5.8 5.0 5.8 5.1 4.1 3.1 2.5 4.2 6.1 9.4 13.1 15.1 15.9 15.4 14.7 15.8 14.5 15.1 14.8 14.7 13.6 15.1 17.2 20.6 18.4 18.1 16.9 19.4 18.2 17.3 17.8 18.2 16.4 16.1 15.4 14.1 15.1 14.4 14.0 13.2 12.6 11.8
8.5 8.1 7.6 8.1 8.5 7.3 7.4 6.9 7.4 6.9 5.4 5.0 4.5 4.1 4.1 4.5 5.1 4.1 4.0 6.0 8.8 10.7 10.7 10.4 11.8 14.4 14.5 13.7 13.2 13.8 13.2 16.1 15.5 15.1 17.7 18.9 18.9 20.2 22.6 17.2 17.0 19.1 18.7 17.7 17.7 17.1 17.7 16.9 15.1 13.8 14.0 13.7 13.9 13.8